Weather History for Selinsgrove, PA

Change the Weather History Date:

Tuesday, October 30, 2012

  Actual Average (KIPT) Record (KIPT)
Temperature  
Mean Temperature 47 °F 47 °F  
Max Temperature 54 °F 57 °F 78 °F (1946)
Min Temperature 39 °F 37 °F 23 °F (1965)
Degree Days  
Heating Degree Days 18 18  
Month to date heating degree days 397  
Since 1 July heating degree days 525  
Cooling Degree Days 0 0  
Month to date cooling degree days 1  
Year to date cooling degree days 698  
Moisture  
Dew Point 41 °F    
Average Humidity 85    
Maximum Humidity 93    
Minimum Humidity 76    
Precipitation  
Precipitation 0.22 in 0.11 in 2.00 in (1935)
Month to date precipitation 3.32  
Year to date precipitation 34.51  
Snow  
Snow 0.00 in - - ()
Month to date snowfall  
Since 1 July snowfall  
Since 1 September snowfall  
Snow Depth -    
Sea Level Pressure  
Sea Level Pressure 29.18 in    
Wind  
Wind Speed 14 mph (ESE)    
Max Wind Speed 26 mph    
Max Gust Speed 43 mph    
Visibility 8 miles    
Events Rain    
T = Trace of Precipitation, MM = Missing Value Source: NWS Daily Summary

Daily Weather History Graph

Daily Weather History Graph

Search for Another Location

Airport:

Trip Planner

Search our weather history database for the weather conditions in past years. The results will help you decide how hot, cold, wet, or windy it might be!

Date:

Astronomy

Oct. 30, 2012 Rise Set
Actual Time 7:36 AM EDT 6:05 PM EDT
Civil Twilight 7:07 AM EDT 6:33 PM EDT
Nautical Twilight 6:35 AM EDT 7:06 PM EDT
Astronomical Twilight 6:03 AM EDT 7:37 PM EDT
Moon 6:33 PM EDT (10/30) 8:21 AM EDT (10/30)
Length of Visible Light 11h 26m
Length of Day
10h 29m
Full, 99% of the Moon is Illuminated
Oct 30
Full
Nov 6
Last Quarter
Nov 13
New
Nov 20
First Quarter
Nov 28
Full

Hourly Weather History & Observations

Time (EDT) Temp. Windchill Dew Point Humidity Pressure Visibility Wind Dir Wind Speed Gust Speed Precip Events Conditions
12:01 AM 55.4 °F - 51.8 °F 88% 28.64 in 6.0 mi NE 18.4 mph 42.6 mph 0.00 in Rain Light Rain
12:31 AM 55.4 °F - 50.0 °F 82% 28.65 in 6.0 mi NE 26.5 mph 35.7 mph 0.00 in Rain Light Rain
12:48 AM 55.4 °F - 50.0 °F 82% 28.65 in 4.0 mi NE 19.6 mph 36.8 mph 0.01 in Rain Light Rain
12:53 AM 54.0 °F - 50.0 °F 86% 28.66 in 3.0 mi NNE 21.9 mph 31.1 mph 0.02 in Rain Rain
1:17 AM 53.6 °F - 48.2 °F 82% 28.67 in 5.0 mi ENE 21.9 mph 42.6 mph 0.02 in Rain Light Rain
5:53 AM 46.9 °F - 41.0 °F 80% 28.96 in 10.0 mi East 20.7 mph 26.5 mph N/A Rain Light Rain
6:53 AM 46.0 °F 39.0 °F 39.9 °F 79% 29.02 in 10.0 mi East 17.3 mph 26.5 mph N/A Rain Light Rain
7:53 AM 45.0 °F 38.2 °F 39.0 °F 80% 29.08 in 10.0 mi ESE 15.0 mph 24.2 mph N/A Rain Light Rain
8:53 AM 45.0 °F 38.9 °F 39.0 °F 80% 29.12 in 10.0 mi ESE 12.7 mph 21.9 mph 0.00 in Rain Light Rain
9:53 AM 45.0 °F 38.9 °F 39.0 °F 80% 29.16 in 10.0 mi ESE 12.7 mph - 0.00 in Rain Light Rain
11:53 AM 44.1 °F 40.8 °F 39.0 °F 82% 29.22 in 10.0 mi SSE 5.8 mph - 0.02 in Rain Light Rain
12:53 PM 44.1 °F 39.0 °F 37.9 °F 79% 29.25 in 9.0 mi SSE 9.2 mph 18.4 mph 0.05 in Rain Light Rain
2:05 PM 44.6 °F 39.2 °F 37.4 °F 76% 29.27 in 10.0 mi SE 10.4 mph 16.1 mph 0.00 in Rain Light Rain
2:53 PM 44.1 °F 39.5 °F 39.0 °F 82% 29.29 in 10.0 mi SE 8.1 mph - 0.02 in Rain Light Rain
3:27 PM 44.6 °F 39.7 °F 39.2 °F 81% 29.30 in 9.0 mi SE 9.2 mph - 0.02 in Rain Light Rain
3:53 PM 44.1 °F 41.5 °F 39.0 °F 82% 29.31 in 10.0 mi SE 4.6 mph - 0.02 in   Overcast
4:07 PM 44.6 °F 40.2 °F 39.2 °F 81% 29.32 in 10.0 mi SE 8.1 mph - N/A   Overcast
4:53 PM 44.1 °F 40.1 °F 39.0 °F 82% 29.34 in 10.0 mi SE 6.9 mph - 0.00 in Rain Light Rain
5:53 PM 43.0 °F 38.8 °F 39.0 °F 86% 29.37 in 10.0 mi SE 6.9 mph - 0.03 in Rain Light Rain
6:53 PM 42.1 °F 37.7 °F 37.9 °F 85% 29.40 in 10.0 mi SE 6.9 mph - 0.00 in Rain Light Rain
8:53 PM 41.0 °F 39.0 °F 39.0 °F 93% 29.43 in 5.0 mi SSE 3.5 mph - 0.02 in Rain Light Rain
9:01 PM 41.0 °F - 39.2 °F 93% 29.43 in 7.0 mi Calm Calm - 0.00 in Rain Light Rain
9:53 PM 42.1 °F 39.2 °F 39.0 °F 89% 29.45 in 9.0 mi SSE 4.6 mph - 0.01 in Rain Light Rain
10:35 PM 41.0 °F 38.0 °F 39.2 °F 93% 29.44 in 7.0 mi Variable 4.6 mph - 0.01 in Rain Light Rain
10:42 PM 39.2 °F 35.9 °F 37.4 °F 93% 29.44 in 4.0 mi WSW 4.6 mph - 0.02 in Rain Light Rain
10:53 PM 39.0 °F 35.7 °F 37.0 °F 93% 29.45 in 5.0 mi SW 4.6 mph - 0.02 in Rain Light Rain
11:53 PM 39.9 °F - 37.9 °F 93% 29.44 in 10.0 mi Calm Calm - 0.01 in   Overcast